Regional Weather Roundup
Issued by NWS San Diego, CA

Home | Current Version | Previous Version | Text Only | Print | Product List | Glossary On
Versions: 1 2 3 4 5 6 7 8 9 10 11 12 13 14 15 16 17 18 19 20 21 22 23 24 25 26 27 28 29 30 31 32 33 34 35 36 37 38 39 40 41 42 43 44 45 46 47 48 49 50
000
ASUS46 KSGX 271911
RWRSGX

SAN DIEGO HOURLY WEATHER ROUNDUP
NATIONAL WEATHER SERVICE SAN DIEGO CA
1200 PM PDT MON APR 27 2015

NOTE: "FAIR" INDICATES FEW OR NO CLOUDS BELOW 12,000 FEET WITH NO
SIGNIFICANT WEATHER AND/OR OBSTRUCTIONS TO VISIBILITY.

CAZ042-043-060-061-PZZ750-775-272000-

GREATER SAN DIEGO AREA

CITY           SKY/WX    TMP DP  RH WIND       PRES   REMARKS
LINDBERGH FLD  SUNNY     75  46  35 NW7       29.94F
POINT LOMA       N/A     69  51  53 W14         N/A
CHULA VISTA      N/A     74  57  55 W7        29.86F
IMPERIAL BEACH MOSUNNY   74  51  44 W10       29.94F
BROWN FIELD    SUNNY     81  42  25 W10       29.93F
MIRAMAR MCAS   MOSUNNY   81  29  15 W9        29.93F
MONTGOMERY FLD SUNNY     80  40  23 W12       29.93F

$$

NORTH SAN DIEGO COUNTY

CITY           SKY/WX    TMP DP  RH WIND       PRES   REMARKS
CAMP PENDLETON SUNNY     80  43  26 SW12      29.92S
OCEANSIDE AP   SUNNY     77  46  33 W9        29.92F
VISTA            N/A     80  40  24 CALM      29.91F
CARLSBAD       SUNNY     73  49  42 W8        29.92F
FALLBROOK        N/A     83  26  12 NW8       29.93F
SAN MARCOS       N/A     82  39  21 NW7       29.92F
POWAY            N/A     82  45  26 S9        29.94F

$$

EAST SAN DIEGO COUNTY

CITY           SKY/WX    TMP DP  RH WIND       PRES   REMARKS
RAMONA         SUNNY     79  30  16 VRB7      29.95F
SANTEE LAKES     N/A     82  44  26 SE7       29.92F
LA MESA          N/A     78  42  27 W8        29.87F
DESCANSO N       N/A     69  28  21 E18       29.88F
MT. LAGUNA OBS   N/A     50  17  27 N3        29.67R
CAMPO            N/A     71  19  14 NE22G36   29.96S

$$

ORANGE COUNTY AND THE LOS ANGELES BASIN

CITY           SKY/WX    TMP DP  RH WIND       PRES   REMARKS
JOHN WAYNE AP  SUNNY     87  14   6 NE20G25   29.93F
LAKE FOREST FR   N/A     83  21  10 NE10      29.83F
SANTA ANA        N/A     87  24  10 NE6       29.88F
HUNTINGTON BCH   N/A     71  59  64 SW3       29.96F
LOS ALAMITOS   SUNNY     82  45  26 SW10      29.93F
FULLERTON      SUNNY     86  28  12 W7        29.92F
LONG BEACH     SUNNY     84  31  14 VRB5      29.94F
L.A. AP        MOSUNNY   73  49  42 W12       29.95F
L.A. DOWNTOWN  SUNNY     82  42  24 W8        29.93F

$$

THE INLAND EMPIRE

CITY           SKY/WX    TMP DP  RH WIND       PRES   REMARKS
CORONA         SUNNY     84  18   8 NE23G35   29.95F
CHINO          SUNNY     84  25  11 N12G28    29.95S
ONTARIO        SUNNY     82  19   9 NE18G25   29.96S
SAN BERNARDINO SUNNY    N/A N/A N/A MISG      29.95F
RIVERSIDE AP   SUNNY     81  17   9 N14G28    29.96F
RIV CYN CREST    N/A     78  36  22 E9          N/A
MORENO VALLEY    N/A     78  27  15 SW9       29.95S
MARCH ARB      SUNNY     80  14   8 N18G33    29.96F
HORSETHIEF CYN   N/A     77  21  12 N8        29.94F
MENIFEE          N/A     80  30  15 N7        30.03F
HEMET EAST       N/A     74  26  17 CALM      29.95F
FRENCH VALLEY  FAIR      79  28  15 CALM      29.96F
TEMECULA         N/A     78  39  24 W2        29.90F

$$

SAN BERNARDINO AND RIVERSIDE COUNTY MOUNTAINS

CITY           SKY/WX    TMP DP  RH WIND       PRES   REMARKS
BIG BEAR AP    SUNNY     50  10  20 E7G16     30.18F
ANGELUS OAKS     N/A     61  25  25 CALM      29.93F

$$

SOUTHERN DESERT INCLUDING THE COACHELLA VALLEY

CITY           SKY/WX    TMP DP  RH WIND       PRES   REMARKS
PALM SPRINGS   SUNNY     84  13   7 NE9G20    29.98F
THOUSAND PALMS   N/A     83  23  11 NE8       29.95F
THERMAL        SUNNY     83  17   8 VRB5G16   29.93F
BLYTHE         SUNNY     83  26  12 N16G23    29.93F
IMPERIAL AP    SUNNY     82  24  12 N14       29.94F
EL CENTRO NAS  MOSUNNY   84  23  10 N14       29.96F
YUMA AZ        MOSUNNY   84  28  13 N13       29.91F
MEXICALI       SUNNY     82  19   9 N13       29.93

$$

UPPER DESERT

CITY           SKY/WX    TMP DP  RH WIND       PRES   REMARKS
VICTORVILLE AP SUNNY     72  14  11 NE20G31   30.10F
HESPERIA         N/A     67  20  16 N3        30.17F
APPLE VALLEY     N/A     68  15  13 NE3G23    30.12S
PALMDALE       SUNNY     73  18  12 NE21G32   30.07F
LANCASTER      SUNNY     73  20  13 NE21G29   30.07F
EDWARDS AFB    MOSUNNY   74  16  10 NE17G29   30.05F
DAGGETT        SUNNY     74  13   9 N13G18    30.08F
29 PALMS N     MOSUNNY   72  19  13 N17G23    30.11F
NEEDLES        SUNNY     81  23  11 N22G29    29.98F

$$

REGIONAL REPORTS

CITY           SKY/WX    TMP DP  RH WIND       PRES   REMARKS
SANTA BARBARA  SUNNY     73  47  39 VRB7      29.98S
SANDBERG       SUNNY     67  22  18 E22G33    30.14R
MT. WILSON       N/A     64  32  29 MISG        N/A
LAS VEGAS NV   SUNNY     73  20  13 N12       30.05F
PHOENIX AZ     MOSUNNY   77  38  24 CALM      29.89F
TIJUANA        SUNNY     81  28  15 NW8       29.95F
ENSENADA NW      N/A     74  32  21 W10       29.88F

$$

OFFSHORE ISLANDS

CITY           SKY/WX    TMP DP  RH WIND       PRES   REMARKS
CATALINA ARPT  SUNNY     77  24  14 NE9       30.01S
SAN CLEMENTE I MOSUNNY   73  49  42 N7        29.98S
SAN NICOLAS IS SUNNY     74  44  34 NE6       29.98S

$$

MARINE AND OFFSHORE BUOY REPORTS

STATION/POSITION SKY/WX   TEMP    WIND        PRES    SWELL
                          AIR SEA DIR/SP/G            HT/PER/DIR
                          (F)     (DEG/KT/KT) (MB)    (FT/S/D)
TANNER BANKS               61 62   20/  4/  6 1015.0R   8/300/ 9
S CLEMENTE BASIN           63 64  350/  4/  6 1014.5S   5/280/ 9
SAN NICOLAS IS.               58                N/A     2/300/11
SO. S. ROSA ISLA           58 59  310/  8/ 10 1014.8R   5/ 9
W. S. BARBARA CH           55 53  320/ 12/ 12 1015.2S   5/300/ 8
S. MONICA BASIN            62 63  270/  8/  8 1014.9F   3/260/ 8
S PEDRO CHANNEL               62                N/A     2/260/11
DANA POINT                    64                N/A     2/200/14
OCEANSIDE OFFSHR              64                N/A     2/280/11
TORREY PINES OTR              63                N/A     2/270/11
LA JOLLA 1                 65 63  330/  3/  4 1013.9F
MISSION BAY BUOY              64                N/A     2/290/11
SAN DIEGO BAY                 67              1014.1F
POINT LOMA SOUTH              65                N/A     2/280/11

$$



USA.gov is the U.S. government's official web portal to all federal, state and local government web resources and services.